Powrót do katalogu

KUIPER-00584

AktywnyŁącznośćLEO
NORAD 69274·PAYLOAD·🇺🇸 United States

Wystrzelony May 29, 2026 z Vandenberg Space Force Base

Loading…

Następne Przeloty (najbliższe 24 godziny)

TLE

ŚwieżeSource: CelesTrak SupGP

Epoka: Sep 14, 2026, 20:08 UTC

1 69274C 26118H   26257.83893519  .00006490  00000+0  84971-3 0  2571
2 69274  51.9016   9.3358 0000422 108.2766 120.5415 14.79920149    13

Śledź KUIPER-00584 w czasie rzeczywistym z AllMySat

Download on the App Store